Regional Weather Roundup
Issued by NWS

Home | Current Version | Previous Version | Graphics & Text | Print | Product List | Glossary On
Versions: 1 2 3 4 5 6 7 8 9 10 11 12 13 14 15 16 17 18 19 20 21 22 23 24 25 26 27
000
ASUS45 KBOU 041307
RWRCO

WEATHER ROUNDUP FOR COLORADO
NATIONAL WEATHER SERVICE DENVER/BOULDER CO
600 AM MST SUN DEC 04 2016

NOTE: "FAIR" INDICATES FEW OR NO CLOUDS BELOW 12000 FEET WITH NO
SIGNIFICANT WEATHER AND/OR OBSTRUCTIONS TO VISIBILITY.

COZ001>005-013-030-031-041400-
...NORTHWEST COLORADO...

CITY           SKY/WX    TMP DP  RH WIND       PRES   REMARKS
CRAIG          FAIR       5   0  79 CALM      30.17S
HAYDEN         FAIR      12   7  79 E10       30.15R WCI  -1
MEEKER         FAIR       3  -2  79 N6        30.18R WCI  -8
MOUNT WERNER   NOT AVBL
STEAMBOAT SPGS FAIR       8   7  92 CALM      30.16R
WALDEN           N/A     14   9  79 SE9       30.06S WCI   2
$$

COZ006>008-011-041400-
...WEST CENTRAL VALLEYS...

CITY           SKY/WX    TMP DP  RH WIND       PRES   REMARKS
GRAND JUNCTION FAIR      19  15  84 SE12      30.21S WCI   7
MONTROSE       FAIR      15   8  73 SE7       30.26R WCI   5
EAGLE          FAIR       4   1  88 E7        30.24R WCI  -8
RIFLE          FAIR      12   8  84 CALM      30.24S
DELTA          NOT AVBL
NUCLA          FAIR      14   9  79 E5        30.24R WCI   6
$$

COZ017>023-064>068-041400-
...SOUTHWEST COLORADO...

CITY           SKY/WX    TMP DP  RH WIND       PRES   REMARKS
DURANGO        MOCLDY    16  12  84 NE6       30.15R WCI   7
CORTEZ         FAIR      12   8  84 NE6       30.17R WCI   3
PAGOSA SPRINGS FAIR       9   7  92 CALM      30.13R
TELLURIDE      FAIR      16   4  59 SE6       30.16R WCI   7
WOLF CREEK PAS FAIR      19  -6  32 S3        30.15R
$$

COZ009-010-012-014-032>034-037-058>063-041400-
...CENTRAL COLORADO...

CITY           SKY/WX    TMP DP  RH WIND       PRES   REMARKS
ASPEN          FAIR       5  -1  76 CALM      30.15R
BUENA VISTA    FAIR       5  -2  72 CALM      30.05F
COPPER MTN     FAIR      12  -9  37 MISG      30.04R
BERTHOUD PASS  FAIR       1  -9  60 MISG      29.93R
COTTONWOOD PAS FAIR      27 -13  17 W5        30.00F WCI  21
GUNNISON       FAIR      -1  -4  87 E5        30.23R WCI -11
KREMMLING      FAIR       9   3  78 CALM      30.17R
LEADVILLE      FAIR       6  -8  52 NE12      30.06S WCI  -9
MONARCH PASS     N/A      5   1  85 W37       30.11R WCI -21
SALIDA         FAIR      19   4  51 NW9       30.13R WCI   8
SUNLIGHT       FAIR     N/A N/A N/A SW13      30.12F
WILKERSON PASS FAIR      16 -13  27 NW5       30.02R WCI   9
$$

COZ069>075-041400-
...SAN LUIS VALLEY/SANGRE DE CRISTO MOUNTAINS...

CITY           SKY/WX    TMP DP  RH WIND       PRES   REMARKS
ALAMOSA        FAIR      -6  -9  86 SW7       30.14R WCI -20
LA VETA PASS   FAIR       9   3  78 NE29G37   30.02R WCI -14
SAGUACHE       FAIR      14   5  67 CALM      30.14R
$$

COZ035-036-038>040-041400-
...NORTHERN COLORADO FRONT RANGE...

CITY           SKY/WX    TMP DP  RH WIND       PRES   REMARKS
DENVER INTL AP FAIR      23   7  50 S14       29.98F WCI  11
DMNS CITY PARK   N/A     21   7  55 SE10      30.00S WCI  10
AURORA         PTCLDY    20   4  50 S10       29.99F WCI   9
FRONT RANGE AP NOT AVBL
ERIE MUNI ARPT FAIR      16   8  70 SW3       29.99S
BOULDER MUN AP FAIR      25   9  50 SE6       29.97F WCI  18
CENTENNIAL     FAIR      17   7  64 S7        29.99F WCI   8
BROOMFIELD     PTCLDY    28   7  40 CALM      29.99S
FORT COLLINS   FAIR      18   7  62 CALM      30.00S
LONGMONT       FAIR      17  10  73 CALM      30.00F
$$

COZ041-046-047-076>085-087-088-041400-
...PIKES PEAK/PALMER DIVIDE AND SOUTHERN FOOTHILLS...

CITY           SKY/WX    TMP DP  RH WIND       PRES   REMARKS
COLO. SPRINGS  FAIR      14   5  67 N7        30.03R WCI   4
A. F. ACADEMY  FAIR      11   3  70 N6        30.01R WCI   1
SCHRIEVER AFB  NOT AVBL
ELLICOTT       FAIR     N/A N/A N/A E5          N/A
FALCON         FAIR      15   6  68 W3        30.01F
FORT CARSON    FAIR      17   8  66 NW9       30.02R WCI   6
LIMON          FAIR       4   0  83 NW3       30.03S
MONUMENT HILL  FAIR      14   7  73 S13       30.00S WCI   0
TRINIDAD       FAIR      19  10  68 W13       30.05S WCI   6
$$

COZ042>045-048>051-090-091-041400-
...NORTHEAST COLORADO...

CITY           SKY/WX    TMP DP  RH WIND       PRES   REMARKS
GREELEY ARPT   FAIR       7   3  84 NW3       30.03R
AKRON          FAIR      19   9  65 W10       30.01S WCI   7
BURLINGTON     FAIR      16   8  71 W10       30.04R WCI   4
WRAY           NOT AVBL
STERLING       FAIR      27  12  54 NW9       30.00R WCI  17
HOLYOKE        FAIR      21  14  73 W9        30.01S WCI  11
FORT MORGAN    FAIR      14   9  78 NW8       30.03R WCI   3
$$

COZ086-089-092>099-041400-
...SOUTHEAST COLORADO...

CITY           SKY/WX    TMP DP  RH WIND       PRES   REMARKS
PUEBLO         FAIR      13   7  77 SW6       30.06R WCI   4
LA JUNTA       FAIR      19  14  81 W8        30.08R WCI   9
LAMAR          FAIR      17  12  80 W6        30.08R WCI   9
SPRINGFIELD      N/A     14  12  92 W9        30.06S WCI   2
$$




USA.gov is the U.S. government's official web portal to all federal, state and local government web resources and services.